�N����,����,����,����,����,�C��,���x,�~����,�S�V����,�ő�u�ԕ���,,,,,
,,,,,,,,,����,����,����,�N��,,
yyyy/mm/dd,hh:mm:ss,(16),16����,m/s,��,%,mm,KW/�u,(16),16����,m/s,Time,,
2020/11/1,1:00:00,14,�k��,2.3,2.5,98.5,0,0,14,�k��,3.8,48,,
2020/11/1,2:00:00,13,���k��,2.4,3,95.6,0,0,13,���k��,3.7,48,,
2020/11/1,3:00:00,13,���k��,2.1,3,93.2,0,0,14,�k��,3.4,10,,
2020/11/1,4:00:00,12,��,1.4,1.9,96.9,0,0,14,�k��,3.2,13,,
2020/11/1,5:00:00,13,���k��,1.7,2.1,97.5,0,0,13,���k��,3.3,31,,
2020/11/1,6:00:00,13,���k��,1.5,2.2,94.5,0,0,13,���k��,3.7,10,,
2020/11/1,7:00:00,12,��,1,3.3,93,0,0.03,12,��,2.9,29,,
2020/11/1,8:00:00,13,���k��,1.3,5.3,87.2,0,0.12,13,���k��,3.6,8,,
2020/11/1,9:00:00,13,���k��,0.9,7.5,83.9,0,0.22,14,�k��,2.4,5,,
2020/11/1,10:00:00,4,��,1.9,9.3,86.4,0,0.35,5,���쓌,3.4,37,,
2020/11/1,11:00:00,4,��,1.9,12.2,84.9,0,0.32,3,���k��,2.8,57,,
2020/11/1,12:00:00,8,��,4.8,13.8,70.4,0,0.55,8,��,8.4,53,,
2020/11/1,13:00:00,8,��,5,14.5,70.8,0,0.59,8,��,10.5,22,,
2020/11/1,14:00:00,8,��,5.1,14.7,72.3,0,0.54,8,��,11.1,9,,
2020/11/1,15:00:00,8,��,4.3,13.7,77.2,0,0.31,9,��쐼,8.6,0,,
2020/11/1,16:00:00,8,��,2.8,12.7,75.8,0,0.13,8,��,7.9,9,,
2020/11/1,17:00:00,9,��쐼,2.8,11.8,85.1,0,0.01,8,��,6.1,38,,
2020/11/1,18:00:00,9,��쐼,2.5,11.8,93.6,0,0,9,��쐼,6.3,31,,
2020/11/1,19:00:00,9,��쐼,3,12.1,93.8,0,0,9,��쐼,6.7,25,,
2020/11/1,20:00:00,9,��쐼,1.7,11.8,90.3,0,0,9,��쐼,5.7,21,,
2020/11/1,21:00:00,9,��쐼,1.1,11.3,87.2,0,0,10,�쐼,4.3,38,,
2020/11/1,22:00:00,9,��쐼,2.5,12.2,87.4,0,0,9,��쐼,5.7,58,,
2020/11/1,23:00:00,9,��쐼,2.5,12.6,93.2,0,0,8,��,6.6,30,,
2020/11/1,0:00:00,9,��쐼,3.9,12.9,94.9,0,0,9,��쐼,7.8,33,,
2020/11/2,1:00:00,8,��,4.4,12.9,95.7,0,0,8,��,9,33,,
2020/11/2,2:00:00,13,���k��,0.5,11.7,98,0,0,8,��,8.1,2,,
2020/11/2,3:00:00,10,�쐼,1.4,13.1,89.7,0,0,10,�쐼,6.6,13,,
2020/11/2,4:00:00,9,��쐼,3.5,12.4,89.5,0,0,10,�쐼,6.5,44,,
2020/11/2,5:00:00,8,��,2.2,12.4,85.2,0,0,9,��쐼,6.6,0,,
2020/11/2,6:00:00,9,��쐼,3.4,13.2,86,0,0,8,��,7,27,,
2020/11/2,7:00:00,8,��,4.2,13.9,90.6,0,0.02,9,��쐼,10.9,19,,
2020/11/2,8:00:00,9,��쐼,4.5,14.3,83.3,0,0.08,9,��쐼,9.5,49,,
2020/11/2,9:00:00,7,��쓌,2.9,14.2,89.3,0,0.1,10,�쐼,7.8,8,,
2020/11/2,10:00:00,9,��쐼,1.9,15.3,81.5,0,0.17,9,��쐼,5.1,8,,
2020/11/2,11:00:00,8,��,2.4,16.8,68.7,0,0.25,9,��쐼,5.3,59,,
2020/11/2,12:00:00,8,��,3.1,15.7,78,0,0.23,10,�쐼,6.9,5,,
2020/11/2,13:00:00,9,��쐼,2.7,15.6,78.2,0,0.19,8,��,6.1,23,,
2020/11/2,14:00:00,8,��,0.9,15.3,80.7,0,0.11,8,��,4.6,0,,
2020/11/2,15:00:00,10,�쐼,2.1,14.8,79.4,0,0.06,10,�쐼,5.3,31,,
2020/11/2,16:00:00,9,��쐼,2.5,14.8,76.7,0,0.04,10,�쐼,4.7,59,,
2020/11/2,17:00:00,9,��쐼,2.3,14.7,67.3,0,0.01,8,��,5.3,37,,
2020/11/2,18:00:00,9,��쐼,2.5,14.3,71.2,0,0,8,��,5.7,21,,
2020/11/2,19:00:00,9,��쐼,2.2,14.3,72.6,0,0,9,��쐼,4.8,40,,
2020/11/2,20:00:00,8,��,2,13,81.5,0,0,9,��쐼,4.3,21,,
2020/11/2,21:00:00,7,��쓌,2.3,13.6,79.8,0,0,7,��쓌,3.8,53,,
2020/11/2,22:00:00,9,��쐼,1.8,13.4,81.4,0,0,8,��,5.3,23,,
2020/11/2,23:00:00,5,���쓌,2.2,9.9,92.9,0,0,8,��,3.4,2,,
2020/11/2,0:00:00,11,���쐼,2.1,9.8,91.4,0,0,10,�쐼,4.7,10,,
2020/11/3,1:00:00,11,���쐼,2.6,9.2,90.6,0,0,11,���쐼,4.3,20,,
2020/11/3,2:00:00,10,�쐼,2.7,9.3,85.2,0,0,10,�쐼,5.1,58,,
2020/11/3,3:00:00,12,��,3.8,8.5,76,0,0,11,���쐼,7.4,14,,
2020/11/3,4:00:00,13,���k��,3.6,6.9,79.9,0,0,13,���k��,6.3,30,,
2020/11/3,5:00:00,13,���k��,3.4,6.1,80,0,0,13,���k��,5.7,9,,
2020/11/3,6:00:00,12,��,0.7,1.7,92.1,0,0,12,��,5,2,,
2020/11/3,7:00:00,11,���쐼,0.8,3.3,94.3,0,0.07,9,��쐼,1.9,38,,
2020/11/3,8:00:00,12,��,1.1,8,76.7,0,0.24,10,�쐼,3.1,30,,
2020/11/3,9:00:00,15,�k�k��,1.1,10.6,64,0,0.41,14,�k��,3.1,34,,
2020/11/3,10:00:00,10,�쐼,1.5,11.2,58.7,0,0.39,10,�쐼,3.4,51,,
2020/11/3,11:00:00,7,��쓌,3.2,13.6,47.6,0,0.69,8,��,6,41,,
2020/11/3,12:00:00,11,���쐼,6.1,13.5,36.2,0,0.69,11,���쐼,10.6,59,,
2020/11/3,13:00:00,10,�쐼,6.1,12.9,38.9,0,0.59,11,���쐼,10.9,51,,
2020/11/3,14:00:00,11,���쐼,4.3,12.9,35.3,0,0.48,10,�쐼,8.5,9,,
2020/11/3,15:00:00,8,��,4.9,12.1,38.4,0,0.31,10,�쐼,8.1,8,,
2020/11/3,16:00:00,11,���쐼,4.2,9.4,46.8,0,0.12,8,��,7.4,8,,
2020/11/3,17:00:00,11,���쐼,3.9,8.1,51.1,0,0.01,11,���쐼,5.7,1,,
2020/11/3,18:00:00,12,��,2.7,4.4,66.5,0,0,11,���쐼,5.1,13,,
2020/11/3,19:00:00,10,�쐼,1.4,4.8,65.7,0,0,11,���쐼,3.7,42,,
2020/11/3,20:00:00,12,��,2.1,4.5,79,0,0,12,��,3.1,49,,
2020/11/3,21:00:00,11,���쐼,1.9,5.9,72.5,0,0,10,�쐼,4.4,50,,
2020/11/3,22:00:00,14,�k��,1.4,6.2,74.5,0,0,10,�쐼,3.8,33,,
2020/11/3,23:00:00,10,�쐼,1.2,5.3,83.1,0,0,14,�k��,2.7,10,,
2020/11/3,0:00:00,10,�쐼,1.8,4.8,83.4,0,0,10,�쐼,3.6,43,,
2020/11/4,1:00:00,13,���k��,1.9,4.7,81,0,0,13,���k��,4.2,49,,
2020/11/4,2:00:00,10,�쐼,1.8,4.1,89.7,0,0,9,��쐼,3.7,36,,
2020/11/4,3:00:00,11,���쐼,3.7,2.9,81.3,0,0,10,�쐼,5.4,50,,
2020/11/4,4:00:00,11,���쐼,1.4,-1.2,92.7,0,0,11,���쐼,4.7,2,,
2020/11/4,5:00:00,13,���k��,2.5,-1.7,96.2,0,0,13,���k��,4.3,53,,
2020/11/4,6:00:00,12,��,2.8,-1.5,91.3,0,0,13,���k��,4.5,53,,
2020/11/4,7:00:00,16,�k,1.9,1.3,87.4,0,0.07,13,���k��,3.5,10,,
2020/11/4,8:00:00,12,��,1.3,5.4,65.1,0,0.25,14,�k��,2.7,39,,
2020/11/4,9:00:00,12,��,1.6,7.5,48.2,0,0.32,11,���쐼,4.9,59,,
2020/11/4,10:00:00,11,���쐼,5.4,8.6,43.3,0,0.59,11,���쐼,9,42,,
2020/11/4,11:00:00,13,���k��,5.6,9.1,35.1,0,0.7,12,��,9.4,55,,
2020/11/4,12:00:00,16,�k,2.1,8,44.7,0,0.26,12,��,13.1,21,,
2020/11/4,13:00:00,13,���k��,5.6,9.5,35.5,0,0.4,12,��,10.1,57,,
2020/11/4,14:00:00,12,��,6,9,39.1,0,0.51,12,��,9.2,16,,
2020/11/4,15:00:00,12,��,5.4,8.1,37.7,0,0.32,13,���k��,9.3,36,,
2020/11/4,16:00:00,11,���쐼,5.3,5.9,49.1,0,0.12,11,���쐼,9.9,38,,
2020/11/4,17:00:00,10,�쐼,4.9,5.4,52.7,0,0.01,12,��,9.6,8,,
2020/11/4,18:00:00,11,���쐼,6,5.5,52.5,0,0,11,���쐼,9.9,45,,
2020/11/4,19:00:00,11,���쐼,6.1,5.4,53.9,0,0,10,�쐼,11,14,,
2020/11/4,20:00:00,11,���쐼,5.4,5.1,53.7,0,0,11,���쐼,10.6,22,,
2020/11/4,21:00:00,11,���쐼,5.8,5.6,53,0,0,10,�쐼,10.6,32,,
2020/11/4,22:00:00,11,���쐼,5.8,6.2,51.4,0,0,11,���쐼,11.9,21,,
2020/11/4,23:00:00,12,��,6.9,7,48.6,0,0,11,���쐼,13,6,,
2020/11/4,0:00:00,11,���쐼,3.8,6.4,52.7,0,0,12,��,12.4,12,,
2020/11/5,1:00:00,11,���쐼,4.3,6.6,55,0,0,11,���쐼,7.4,36,,
2020/11/5,2:00:00,11,���쐼,4.6,6.6,52.5,0,0,10,�쐼,8.3,35,,
2020/11/5,3:00:00,3,���k��,0.6,3.4,67.1,0,0,11,���쐼,5.1,2,,
2020/11/5,4:00:00,3,���k��,1.2,-1.8,84.8,0,0,1,�k�k��,3.5,40,,
2020/11/5,5:00:00,13,���k��,0.9,-0.6,84.1,0,0,15,�k�k��,2.4,36,,
2020/11/5,6:00:00,14,�k��,2.2,3.2,62.1,0,0,12,��,7.1,36,,
2020/11/5,7:00:00,12,��,7.1,7.8,42.9,0,0.07,12,��,14.4,59,,
2020/11/5,8:00:00,12,��,8.1,9,41.9,0,0.25,12,��,14,53,,
2020/11/5,9:00:00,13,���k��,6.3,10.3,37.4,0,0.42,13,���k��,13.2,42,,
2020/11/5,10:00:00,12,��,8.7,11.1,35,0,0.55,12,��,13.7,53,,
2020/11/5,11:00:00,12,��,7.4,11.7,37.3,0,0.61,11,���쐼,13,40,,
2020/11/5,12:00:00,12,��,7.3,12.5,34.6,0,0.61,12,��,12.7,34,,
2020/11/5,13:00:00,12,��,8.3,12.2,33.6,0,0.57,12,��,14.6,21,,
2020/11/5,14:00:00,12,��,7,11.9,38.3,0,0.46,12,��,12.8,19,,
2020/11/5,15:00:00,11,���쐼,5.2,11.2,39.7,0,0.3,12,��,12.3,10,,
2020/11/5,16:00:00,11,���쐼,4.8,9.2,47.9,0,0.11,12,��,10.9,30,,
2020/11/5,17:00:00,11,���쐼,4.3,8.2,53.9,0,0.01,11,���쐼,7.6,2,,
2020/11/5,18:00:00,10,�쐼,4.4,8.1,54.6,0,0,12,��,9.6,1,,
2020/11/5,19:00:00,10,�쐼,3.8,7.8,56.3,0,0,11,���쐼,7.4,12,,
2020/11/5,20:00:00,10,�쐼,3.2,7.6,55.4,0,0,10,�쐼,6.8,31,,
2020/11/5,21:00:00,10,�쐼,2.7,8,53.2,0,0,10,�쐼,5.5,30,,
2020/11/5,22:00:00,11,���쐼,0.8,3.1,64.6,0,0,10,�쐼,4.6,11,,
2020/11/5,23:00:00,13,���k��,1.4,-0.3,85.8,0,0,13,���k��,2.9,23,,
2020/11/5,0:00:00,13,���k��,1.5,-2.5,93.3,0,0,12,��,3.3,39,,
2020/11/6,1:00:00,12,��,1.9,-2.2,94.1,0,0,12,��,3.3,0,,
2020/11/6,2:00:00,12,��,2.5,-1.5,92.4,0,0,12,��,3.4,25,,
2020/11/6,3:00:00,12,��,2.2,-1.9,92.9,0,0,12,��,4.7,55,,
2020/11/6,4:00:00,12,��,2.8,-1.7,96,0,0,11,���쐼,5.7,9,,
2020/11/6,5:00:00,10,�쐼,4.4,9.2,61,0,0,10,�쐼,6.9,25,,
2020/11/6,6:00:00,11,���쐼,4.1,8.9,60.3,0,0,11,���쐼,7.3,39,,
2020/11/6,7:00:00,9,��쐼,2.5,9.5,59.4,0,0.05,9,��쐼,4.8,44,,
2020/11/6,8:00:00,9,��쐼,3.2,12.4,52.2,0,0.19,9,��쐼,6.4,59,,
2020/11/6,9:00:00,9,��쐼,4.9,13.9,44.7,0,0.37,9,��쐼,8.8,34,,
2020/11/6,10:00:00,10,�쐼,6,15.3,42.3,0,0.52,10,�쐼,11.2,42,,
2020/11/6,11:00:00,10,�쐼,6.4,15.7,39.8,0,0.57,9,��쐼,11.2,3,,
2020/11/6,12:00:00,10,�쐼,4.3,16.7,41.8,0,0.53,11,���쐼,10.1,15,,
2020/11/6,13:00:00,11,���쐼,5.8,16.7,38.6,0,0.47,10,�쐼,9.6,52,,
2020/11/6,14:00:00,11,���쐼,6.8,16.2,40.2,0,0.32,10,�쐼,11.2,47,,
2020/11/6,15:00:00,10,�쐼,4.2,15,46.6,0,0.21,10,�쐼,9.7,21,,
2020/11/6,16:00:00,9,��쐼,2.2,13.3,51.6,0,0.05,11,���쐼,5.9,2,,
2020/11/6,17:00:00,11,���쐼,2,12.5,55.1,0,0,9,��쐼,4.2,4,,
2020/11/6,18:00:00,7,��쓌,1.5,11.6,58.9,0,0,10,�쐼,2.7,9,,
2020/11/6,19:00:00,10,�쐼,0.7,8.6,73.1,0,0,6,�쓌,3.3,20,,
2020/11/6,20:00:00,10,�쐼,2.1,12.5,67.1,0,0,9,��쐼,3.6,46,,
2020/11/6,21:00:00,9,��쐼,2.1,12.9,69.2,0,0,9,��쐼,4.7,11,,
2020/11/6,22:00:00,8,��,2.1,10.4,79.6,0,0,9,��쐼,4.5,7,,
2020/11/6,23:00:00,8,��,2,9.7,77.4,0,0,7,��쓌,3.7,11,,
2020/11/6,0:00:00,10,�쐼,3.8,12.9,74.7,0,0,10,�쐼,7.5,59,,
2020/11/7,1:00:00,10,�쐼,4,13.7,66.4,0,0,10,�쐼,7.7,22,,
2020/11/7,2:00:00,10,�쐼,3.2,13.7,72.7,0,0,10,�쐼,6.9,22,,
2020/11/7,3:00:00,10,�쐼,3.9,13,75.9,0,0,9,��쐼,6.7,56,,
2020/11/7,4:00:00,10,�쐼,4.7,13.2,71.2,0,0,10,�쐼,7.3,52,,
2020/11/7,5:00:00,10,�쐼,6.1,13.1,72.4,0,0,11,���쐼,9.2,52,,
2020/11/7,6:00:00,5,���쓌,1.2,8.5,86.1,0,0,10,�쐼,7.1,8,,
2020/11/7,7:00:00,1,�k�k��,0.4,8.7,90.8,0,0.04,3,���k��,2.3,9,,
2020/11/7,8:00:00,9,��쐼,2.3,16,62.8,0,0.2,8,��,4.3,59,,
2020/11/7,9:00:00,9,��쐼,2.4,17.5,56.6,0,0.37,9,��쐼,6.5,43,,
2020/11/7,10:00:00,9,��쐼,3.4,18.1,51.6,0,0.48,10,�쐼,6.5,44,,
2020/11/7,11:00:00,11,���쐼,6.2,19.2,46.9,0,0.55,10,�쐼,10.8,51,,
2020/11/7,12:00:00,10,�쐼,3.6,19.4,48,0,0.59,10,�쐼,9.9,7,,
2020/11/7,13:00:00,10,�쐼,3.9,19.2,45.5,0,0.46,10,�쐼,8,22,,
2020/11/7,14:00:00,10,�쐼,4.5,17.3,51.1,0,0.22,11,���쐼,9,19,,
2020/11/7,15:00:00,10,�쐼,4.2,17.5,47.8,0,0.13,10,�쐼,7.4,28,,
2020/11/7,16:00:00,9,��쐼,2,16.5,53.2,0,0.08,11,���쐼,6.7,29,,
2020/11/7,17:00:00,7,��쓌,2.8,15,57,0,0,7,��쓌,6,49,,
2020/11/7,18:00:00,9,��쐼,2.5,13.7,63.3,0,0,10,�쐼,4.7,47,,
2020/11/7,19:00:00,10,�쐼,1.4,8.5,83.7,0,0,7,��쓌,2.8,23,,
2020/11/7,20:00:00,10,�쐼,1.7,7.5,87,0,0,9,��쐼,3.3,48,,
2020/11/7,21:00:00,10,�쐼,1.8,5.9,90.4,0,0,11,���쐼,3.1,40,,
2020/11/7,22:00:00,10,�쐼,1.5,4.1,90.1,0,0,7,��쓌,4.1,38,,
2020/11/7,23:00:00,15,�k�k��,0.7,4,88.8,0,0,10,�쐼,3.8,59,,
2020/11/7,0:00:00,14,�k��,1.6,3.2,95.8,0,0,10,�쐼,2.7,47,,
2020/11/8,1:00:00,4.8,��,93.2,0,0,,,,,,,,
2020/11/8,2:00:00,11,���쐼,2.5,4.4,95.8,0,0,11,���쐼,3.5,11,,
2020/11/8,3:00:00,12,��,2,3.2,95.7,0,0,12,��,3,55,,
2020/11/8,4:00:00,11,���쐼,1.7,4,96,0,0,16,�k,3,8,,
2020/11/8,5:00:00,13,���k��,0.8,2.4,92,0,0,11,���쐼,2.8,44,,
2020/11/8,6:00:00,12,��,1.8,2.7,99.2,0,0,11,���쐼,3.7,29,,
2020/11/8,7:00:00,11,���쐼,1.4,3.1,99.2,0,0.04,13,���k��,3.7,4,,
2020/11/8,8:00:00,13,���k��,2.5,8.7,86.8,0,0.21,12,��,7.2,0,,
2020/11/8,9:00:00,12,��,0.5,12.3,65.6,0,0.38,13,���k��,2.7,10,,
2020/11/8,10:00:00,15,�k�k��,2.3,13.7,61.9,0,0.5,2,�k��,5.3,59,,
2020/11/8,11:00:00,5,���쓌,2.1,14.8,54.7,0,0.56,2,�k��,5.3,0,,
2020/11/8,12:00:00,12,��,1.7,15.3,50.1,0,0.61,5,���쓌,5.3,45,,
2020/11/8,13:00:00,14,�k��,2.6,14.9,43.4,0,0.55,15,�k�k��,7.5,50,,
2020/11/8,14:00:00,12,��,4,13.2,30.3,0,0.44,14,�k��,8.4,58,,
2020/11/8,15:00:00,15,�k�k��,2.1,12.2,35.5,0,0.28,14,�k��,8,0,,
2020/11/8,16:00:00,15,�k�k��,1.3,9.7,35.3,0,0.1,14,�k��,4.6,13,,
2020/11/8,17:00:00,2,�k��,0.9,4.8,53.1,0,0,14,�k��,2.3,1,,
2020/11/8,18:00:00,12,��,1,1.9,73.1,0,0,12,��,1.9,58,,
2020/11/8,19:00:00,16,�É�,0.2,0.3,75.3,0,0,13,���k��,1.5,38,,
2020/11/8,20:00:00,12,��,2.9,5,73.2,0,0,13,���k��,7.9,59,,
2020/11/8,21:00:00,12,��,2.5,5,90.2,0,0,11,���쐼,7.4,16,,
2020/11/8,22:00:00,13,���k��,0.6,3.3,99,0,0,12,��,2.5,1,,
2020/11/8,23:00:00,2,�k��,2.1,2,97.1,0.5,0,1,�k�k��,3,53,,
2020/11/8,0:00:00,14,�k��,2.6,2.2,100,0,0,14,�k��,4.7,55,,
2020/11/9,1:00:00,2,�k��,1.5,1.6,99.8,0,0,16,�k,3.4,8,,
2020/11/9,2:00:00,2,�k��,2.4,2.5,96.8,0,0,14,�k��,4,13,,
2020/11/9,3:00:00,8,��,1.2,2.6,95.5,0,0,3,���k��,3.3,10,,
2020/11/9,4:00:00,11,���쐼,0.9,1.5,98.7,0.5,0,15,�k�k��,3.1,39,,
2020/11/9,5:00:00,14,�k��,3,1.5,98.9,0,0,14,�k��,4.7,22,,
2020/11/9,6:00:00,16,�k,0.7,1.1,98.7,0,0,3,���k��,7,52,,
2020/11/9,7:00:00,13,���k��,3.7,1,99.2,0,0.03,13,���k��,6.3,42,,
2020/11/9,8:00:00,14,�k��,1.5,2.5,96.4,0,0.1,13,���k��,6.1,16,,
2020/11/9,9:00:00,15,�k�k��,2.6,4.5,84.4,0,0.17,14,�k��,6.1,59,,
2020/11/9,10:00:00,14,�k��,3.4,4.9,83.2,0,0.23,14,�k��,8,12,,
2020/11/9,11:00:00,15,�k�k��,2.5,5.6,80.2,0,0.23,14,�k��,7.2,13,,
2020/11/9,12:00:00,16,�k,1.1,5.4,80.4,0,0.22,1,�k�k��,6,7,,
2020/11/9,13:00:00,3,���k��,2.5,6.6,71.6,0,0.34,4,��,4.2,54,,
2020/11/9,14:00:00,6,�쓌,1.3,5.6,68.8,0,0.14,4,��,3.2,2,,
2020/11/9,15:00:00,6,�쓌,2.1,5.9,68.9,0,0.17,6,�쓌,3.8,53,,
2020/11/9,16:00:00,13,���k��,2.7,4.9,79.3,0,0.08,14,�k��,6.6,0,,
2020/11/9,17:00:00,1,�k�k��,2.3,0.9,94,0,0,14,�k��,7.1,0,,
2020/11/9,18:00:00,14,�k��,2,0.6,95.6,0,0,14,�k��,3.4,21,,
2020/11/9,19:00:00,14,�k��,1.1,0.9,95.5,0,0,14,�k��,3.1,37,,
2020/11/9,20:00:00,13,���k��,1.1,-2.4,98.9,0,0,13,���k��,2.7,49,,
2020/11/9,21:00:00,15,�k�k��,1.7,-1.1,100,0,0,15,�k�k��,2.9,22,,
2020/11/9,22:00:00,13,���k��,2.3,-2,100,0,0,13,���k��,4,22,,
2020/11/9,23:00:00,13,���k��,2.2,-1.8,99.6,0,0,14,�k��,4.4,25,,
2020/11/9,0:00:00,13,���k��,1.7,-2.5,100,0,0,13,���k��,3.6,1,,
2020/11/10,1:00:00,13,���k��,1.3,-4,100,0,0,16,�k,2.9,44,,
2020/11/10,2:00:00,13,���k��,1.8,-5.8,99.1,0,0,13,���k��,3.1,51,,
2020/11/10,3:00:00,13,���k��,2.5,-3.6,100,0,0,13,���k��,4.2,58,,
2020/11/10,4:00:00,14,�k��,1.4,-3.5,99.4,0,0,12,��,3.9,3,,
2020/11/10,5:00:00,14,�k��,3.2,-3.3,99.3,0,0,13,���k��,5.5,59,,
2020/11/10,6:00:00,14,�k��,0.8,-6.1,96.4,0,0,13,���k��,4.8,6,,
2020/11/10,7:00:00,14,�k��,1.3,-3.5,96.6,0,0.06,14,�k��,3.4,33,,
2020/11/10,8:00:00,0.8,�k,90.5,0,0.25,,,,,,,,
2020/11/10,9:00:00,2,�k��,1.1,3.8,81.4,0,0.43,2,�k��,1.8,57,,
2020/11/10,10:00:00,2,�k��,0.6,6.7,62.8,0,0.54,10,�쐼,2.4,29,,
2020/11/10,11:00:00,4,��,2.4,7.5,53.5,0,0.6,5,���쓌,4.1,50,,
2020/11/10,12:00:00,5,���쓌,0.7,5.5,59.2,0,0.38,3,���k��,5.1,25,,
2020/11/10,13:00:00,10,�쐼,2,6.6,51.1,0,0.25,9,��쐼,3.4,55,,
2020/11/10,14:00:00,15,�k�k��,2.6,5.4,44.4,0,0.2,16,�k,5.1,26,,
2020/11/10,15:00:00,12,��,1.9,6.1,39.4,0,0.22,11,���쐼,4.9,57,,
2020/11/10,16:00:00,12,��,4.5,3.3,50.1,0,0.11,13,���k��,6.8,55,,
2020/11/10,17:00:00,16,�k,0.8,0.9,57,0,0.01,12,��,6.1,1,,
2020/11/10,18:00:00,15,�k�k��,1.2,-0.7,72.6,0,0,10,�쐼,2.5,37,,
2020/11/10,19:00:00,12,��,1.4,-5,84.6,0,0,12,��,3.2,23,,
2020/11/10,20:00:00,13,���k��,1.5,-4.4,88.6,0,0,12,��,2.7,59,,
2020/11/10,21:00:00,16,�É�,0.1,-5,90.3,0,0,13,���k��,2.6,1,,
2020/11/10,22:00:00,13,���k��,1.3,-5.2,91.7,0,0,12,��,2.8,35,,
2020/11/10,23:00:00,2,�k��,1.1,-5.2,89,0,0,15,�k�k��,3.9,47,,
2020/11/10,0:00:00,14,�k��,1.2,-5.6,92.7,0,0,13,���k��,3.4,43,,
2020/11/11,1:00:00,14,�k��,3.6,-2.5,82.3,0,0,14,�k��,4.9,53,,
2020/11/11,2:00:00,13,���k��,1.9,-7,91.2,0,0,15,�k�k��,4.4,5,,
2020/11/11,3:00:00,16,�k,1,-4,88.1,0,0,2,�k��,4.8,49,,
2020/11/11,4:00:00,14,�k��,2.8,-1.6,76.7,0,0,14,�k��,5.4,34,,
2020/11/11,5:00:00,14,�k��,2.5,-1.7,76.5,0,0,14,�k��,5.5,36,,
2020/11/11,6:00:00,13,���k��,1.4,-3.5,79.3,0,0,15,�k�k��,4.7,13,,
2020/11/11,7:00:00,15,�k�k��,2.5,-1.2,71.7,0,0.06,15,�k�k��,4.3,44,,
2020/11/11,8:00:00,15,�k�k��,3.6,1.6,60.8,0,0.23,14,�k��,6.3,48,,
2020/11/11,9:00:00,15,�k�k��,3.6,3.4,49.7,0,0.41,14,�k��,8.2,47,,
2020/11/11,10:00:00,15,�k�k��,5.3,4,34.3,0,0.54,14,�k��,9.8,57,,
2020/11/11,11:00:00,15,�k�k��,5.5,5.1,37.2,0,0.6,14,�k��,9.9,59,,
2020/11/11,12:00:00,15,�k�k��,5.4,5.6,33.4,0,0.61,14,�k��,10.5,21,,
2020/11/11,13:00:00,14,�k��,4.8,6.1,37.2,0,0.56,14,�k��,10.1,46,,
2020/11/11,14:00:00,15,�k�k��,4,6,35.8,0,0.45,15,�k�k��,9,5,,
2020/11/11,15:00:00,15,�k�k��,4.1,5.1,44,0,0.29,15,�k�k��,9.2,35,,
2020/11/11,16:00:00,15,�k�k��,2.4,3.1,50.8,0,0.1,15,�k�k��,6.4,38,,
2020/11/11,17:00:00,12,��,2.5,-0.3,67.1,0,0,14,�k��,6.3,26,,
2020/11/11,18:00:00,13,���k��,2.9,-1.4,76.3,0,0,13,���k��,4.3,12,,
2020/11/11,19:00:00,13,���k��,2.2,-2,73.4,0,0,14,�k��,3.5,27,,
2020/11/11,20:00:00,14,�k��,2.4,-1.3,76.7,0,0,13,���k��,4,59,,
2020/11/11,21:00:00,13,���k��,0.7,-4.5,86.9,0,0,13,���k��,3.6,10,,
2020/11/11,22:00:00,12,��,1.3,-5.4,92.6,0,0,13,���k��,2,55,,
2020/11/11,23:00:00,12,��,2,-7.1,95.4,0,0,12,��,2.5,0,,
2020/11/11,0:00:00,13,���k��,1.7,-5.4,93.7,0,0,14,�k��,3.4,40,,
2020/11/12,1:00:00,14,�k��,2.2,-5.5,93.7,0,0,14,�k��,2.9,52,,
2020/11/12,2:00:00,14,�k��,1.8,-5.2,93.4,0,0,13,���k��,2.7,9,,
2020/11/12,3:00:00,13,���k��,1.2,-4.7,88.4,0,0,13,���k��,3.5,16,,
2020/11/12,4:00:00,13,���k��,2.1,-4.9,89.2,0,0,12,��,3,55,,
2020/11/12,5:00:00,13,���k��,2.5,-4.8,87.9,0,0,13,���k��,3.5,55,,
2020/11/12,6:00:00,13,���k��,2.5,-4.7,86.5,0,0,14,�k��,4.2,34,,
2020/11/12,7:00:00,13,���k��,1.2,-3.3,83.1,0,0.04,14,�k��,4.5,52,,
2020/11/12,8:00:00,13,���k��,1.5,-0.2,73.8,0,0.2,13,���k��,3.6,30,,
2020/11/12,9:00:00,13,���k��,1.3,3.8,64.3,0,0.37,14,�k��,2.9,37,,
2020/11/12,10:00:00,7.8,��쓌,54.7,0,0.5,,,,,,,,
2020/11/12,11:00:00,5,���쓌,1.8,8.3,57.4,0,0.55,6,�쓌,4.1,30,,
2020/11/12,12:00:00,5,���쓌,2.3,8.7,59.1,0,0.56,5,���쓌,4.6,40,,
2020/11/12,13:00:00,4,��,2.3,8.8,62.1,0,0.51,3,���k��,4.5,14,,
2020/11/12,14:00:00,4,��,2.3,8.6,63.2,0,0.4,5,���쓌,4.1,32,,
2020/11/12,15:00:00,4,��,1.7,7.6,69,0,0.25,5,���쓌,3.3,18,,
2020/11/12,16:00:00,16,�É�,0,2.8,80.9,0,0.08,4,��,2.6,1,,
2020/11/12,17:00:00,12,��,0.5,0.1,91.7,0,0,12,��,0.9,53,,
2020/11/12,18:00:00,12,��,2.3,-1.5,95.2,0,0,12,��,2.8,53,,
2020/11/12,19:00:00,13,���k��,1.8,-2.2,95.1,0,0,12,��,3,34,,
2020/11/12,20:00:00,13,���k��,1.5,-1.2,96.8,0,0,13,���k��,3,43,,
2020/11/12,21:00:00,13,���k��,2,-1.7,95.4,0,0,14,�k��,3.7,48,,
2020/11/12,22:00:00,13,���k��,2.2,-2.2,95.8,0,0,12,��,4,39,,
2020/11/12,23:00:00,14,�k��,2.6,0.2,91,0,0,14,�k��,4.9,56,,
2020/11/12,0:00:00,13,���k��,1.6,-1.7,88.5,0,0,13,���k��,3.8,52,,
2020/11/13,1:00:00,13,���k��,2,-2.3,93.5,0,0,13,���k��,2.8,58,,
2020/11/13,2:00:00,12,��,2.6,-2.7,96.3,0,0,13,���k��,3.7,58,,
2020/11/13,3:00:00,13,���k��,1.7,-2.5,92.3,0,0,13,���k��,3.8,1,,
2020/11/13,4:00:00,13,���k��,1.6,-3.4,95.4,0,0,12,��,2.5,7,,
2020/11/13,5:00:00,12,��,1.5,-3.6,94.8,0,0,13,���k��,3,23,,
2020/11/13,6:00:00,13,���k��,2.7,-2.8,95,0,0,13,���k��,3.5,49,,
2020/11/13,7:00:00,13,���k��,2.3,-0.7,92,0,0.05,14,�k��,4.4,24,,
2020/11/13,8:00:00,13,���k��,1.6,2,83.3,0,0.18,13,���k��,3.6,40,,
2020/11/13,9:00:00,12,��,1.7,5.8,70.5,0,0.39,14,�k��,5.2,18,,
2020/11/13,10:00:00,7,��쓌,1.5,8.3,59.6,0,0.44,6,�쓌,3.2,59,,
2020/11/13,11:00:00,7,��쓌,1.6,7.9,70.9,0,0.29,6,�쓌,3.5,8,,
2020/11/13,12:00:00,7,��쓌,2.5,8.6,80.1,0,0.17,8,��,4.6,48,,
2020/11/13,13:00:00,8,��,3.1,11.4,74.2,0,0.15,7,��쓌,6.4,42,,
2020/11/13,14:00:00,10,�쐼,5.2,13.8,54.1,0,0.35,10,�쐼,8.4,49,,
2020/11/13,15:00:00,8,��,3.4,11.6,70.8,0,0.19,11,���쐼,11.1,7,,
2020/11/13,16:00:00,9,��쐼,3.7,11.2,75.1,0,0.03,9,��쐼,6.8,28,,
2020/11/13,17:00:00,8,��,2.5,10.6,74,0,0,9,��쐼,7.6,5,,
2020/11/13,18:00:00,8,��,1.2,11.2,68.4,0,0,7,��쓌,7.8,18,,
2020/11/13,19:00:00,12,��,4,8.7,80,0.5,0,12,��,10.2,30,,
2020/11/13,20:00:00,9,��쐼,1.1,6.9,88.6,0,0,12,��,4.8,2,,
2020/11/13,21:00:00,14,�k��,1.9,5.4,95.6,0,0,16,�k,3.8,17,,
2020/11/13,22:00:00,2,�k��,0.9,4.7,94.8,0,0,15,�k�k��,5.7,32,,
2020/11/13,23:00:00,12,��,1.8,0.6,99.3,0,0,12,��,2.9,32,,
2020/11/13,0:00:00,11,���쐼,2.3,-1,100,0,0,13,���k��,3.9,58,,
2020/11/14,1:00:00,12,��,1,-0.8,99.8,0,0,13,���k��,3.5,10,,
2020/11/14,2:00:00,12,��,1.2,0.6,99.4,0,0,15,�k�k��,4.4,44,,
2020/11/14,3:00:00,13,���k��,1.8,0.6,97.3,0,0,11,���쐼,4.2,32,,
2020/11/14,4:00:00,13,���k��,2.7,0.8,100,0,0,14,�k��,4.2,58,,
2020/11/14,5:00:00,14,�k��,1.6,1.5,89,0,0,14,�k��,4.8,20,,
2020/11/14,6:00:00,12,��,0.4,-2.2,97.9,0,0,12,��,3.9,2,,
2020/11/14,7:00:00,13,���k��,1.9,-1.3,98.8,0,0.04,12,��,2.7,56,,
2020/11/14,8:00:00,14,�k��,1.4,4.8,77,0,0.2,14,�k��,3,28,,
2020/11/14,9:00:00,14,�k��,1.7,7.2,65.2,0,0.36,11,���쐼,3.6,6,,
2020/11/14,10:00:00,15,�k�k��,3,8.4,58.7,0,0.48,14,�k��,5.5,49,,
2020/11/14,11:00:00,14,�k��,3.8,9.6,52.8,0,0.54,13,���k��,7.7,44,,
2020/11/14,12:00:00,15,�k�k��,2.9,9.2,51.8,0,0.33,14,�k��,8.3,17,,
2020/11/14,13:00:00,15,�k�k��,4.6,8.8,52,0,0.33,14,�k��,8.7,55,,
2020/11/14,14:00:00,16,�k,4.8,9.2,49.1,0,0.38,14,�k��,9.9,38,,
2020/11/14,15:00:00,14,�k��,5,8.8,48.8,0,0.14,14,�k��,11.2,42,,
2020/11/14,16:00:00,16,�k,4.3,7.7,53.7,0,0.07,14,�k��,10.6,7,,
2020/11/14,17:00:00,16,�k,3.3,6.1,62,0,0,15,�k�k��,9,23,,
2020/11/14,18:00:00,16,�k,3,5.2,64.3,0,0,14,�k��,9.1,26,,
2020/11/14,19:00:00,13,���k��,3.8,4.6,66,0,0,15,�k�k��,7.2,25,,
2020/11/14,20:00:00,12,��,2.7,2.3,72.9,0,0,12,��,7.3,37,,
2020/11/14,21:00:00,13,���k��,0.6,0.5,80.1,0,0,12,��,6.9,56,,
2020/11/14,22:00:00,13,���k��,1.9,-2.1,90.6,0,0,11,���쐼,2.8,30,,
2020/11/14,23:00:00,14,�k��,1.3,-2.8,90.7,0,0,12,��,3.6,59,,
2020/11/14,0:00:00,14,�k��,1.9,-3.1,89.8,0,0,12,��,4.2,43,,
2020/11/15,1:00:00,13,���k��,1.2,-3.7,97,0,0,11,���쐼,2.5,20,,
2020/11/15,2:00:00,13,���k��,2.5,-4,95.7,0,0,13,���k��,3.4,37,,
2020/11/15,3:00:00,13,���k��,2.5,-5,93.3,0,0,13,���k��,3.2,52,,
2020/11/15,4:00:00,13,���k��,2.3,-4.1,93.9,0,0,13,���k��,3.6,29,,
2020/11/15,5:00:00,12,��,2.1,-4.4,95.8,0,0,13,���k��,3.6,28,,
2020/11/15,6:00:00,12,��,1.8,-4.1,95.7,0,0,13,���k��,3,7,,
2020/11/15,7:00:00,12,��,1.7,-3.4,95.8,0,0.04,13,���k��,3.2,18,,
2020/11/15,8:00:00,12,��,1.5,0.6,87.8,0,0.21,13,���k��,3.7,12,,
2020/11/15,9:00:00,13,���k��,0.3,5.9,74.8,0,0.4,11,���쐼,7.4,13,,
2020/11/15,10:00:00,2,�k��,0.6,7.5,71.5,0,0.37,13,���k��,3,1,,
2020/11/15,11:00:00,16,�É�,0.2,8.5,69.3,0,0.37,4,��,2,9,,
2020/11/15,12:00:00,11,���쐼,0.8,8.1,70.3,0,0.25,5,���쓌,1.7,16,,
2020/11/15,13:00:00,11,���쐼,1,8.4,69.9,0,0.23,11,���쐼,1.7,34,,
2020/11/15,14:00:00,2,�k��,0.8,8.5,74.6,0,0.17,2,�k��,1.9,56,,
2020/11/15,15:00:00,1,�k�k��,3.4,9.2,69.2,0,0.3,2,�k��,5.2,0,,
2020/11/15,16:00:00,15,�k�k��,0.5,7.3,66.2,0,0.06,3,���k��,6.6,5,,
2020/11/15,17:00:00,11,���쐼,4.7,10.2,48.7,0,0,11,���쐼,8.7,27,,
2020/11/15,18:00:00,12,��,2.4,9.1,55.7,0,0,11,���쐼,7,3,,
2020/11/15,19:00:00,13,���k��,1.7,3.3,80.9,0,0,13,���k��,4.3,6,,
2020/11/15,20:00:00,3.6,���k��,82,0,0,,,,,,,,
2020/11/15,21:00:00,14,�k��,0.8,2.9,81.1,0,0,11,���쐼,5.2,32,,
2020/11/15,22:00:00,3.7,���k��,74.3,0,0,,,,,,,,
2020/11/15,23:00:00,2.6,�k��,76.2,0,0,,,,,,,,
2020/11/15,0:00:00,12,��,1.7,2.9,80.6,0,0,11,���쐼,4.5,51,,
2020/11/16,1:00:00,14,�k��,0.8,-0.4,91.3,0,0,12,��,3,46,,
2020/11/16,2:00:00,4,��,1.2,0.2,85.8,0,0,4,��,2.1,36,,
2020/11/16,3:00:00,7,��쓌,1.7,8.6,56.5,0,0,7,��쓌,3.2,45,,
2020/11/16,4:00:00,7,��쓌,0.9,4.5,70.9,0,0,7,��쓌,3.1,2,,
2020/11/16,5:00:00,11,���쐼,0.5,2.7,76.8,0,0,8,��,2.3,23,,
2020/11/16,6:00:00,10,�쐼,1.8,3.9,82.3,0,0,10,�쐼,3.4,50,,
2020/11/16,7:00:00,12,��,1.2,6.7,79.9,0,0.02,10,�쐼,3.3,46,,
2020/11/16,8:00:00,11,���쐼,4.1,12.5,60.6,0,0.14,11,���쐼,7.1,47,,
2020/11/16,9:00:00,11,���쐼,4.3,14.5,54.4,0,0.34,11,���쐼,7.2,40,,
2020/11/16,10:00:00,11,���쐼,2.1,14.2,57.4,0,0.3,11,���쐼,7.4,11,,
2020/11/16,11:00:00,11,���쐼,5.7,15.4,51.2,0,0.25,12,��,10.8,49,,
2020/11/16,12:00:00,12,��,6.4,15.4,41.5,0,0.34,13,���k��,12.7,14,,
2020/11/16,13:00:00,12,��,7.4,16,39,0,0.45,12,��,12,18,,
2020/11/16,14:00:00,12,��,6.6,14.6,42.3,0,0.27,12,��,11.1,51,,
2020/11/16,15:00:00,13,���k��,6.5,13.9,41,0,0.24,12,��,11.2,49,,
2020/11/16,16:00:00,12,��,5,11.9,42.8,0,0.07,12,��,11.6,13,,
2020/11/16,17:00:00,15,�k�k��,3.2,7.8,62.7,0,0,12,��,9.2,0,,
2020/11/16,18:00:00,13,���k��,4.9,7.3,50.5,0,0,13,���k��,8.9,54,,
2020/11/16,19:00:00,15,�k�k��,2.5,6.1,48.3,0,0,12,��,8.2,0,,
2020/11/16,20:00:00,15,�k�k��,3.3,4.5,67.5,0,0,15,�k�k��,8.4,33,,
2020/11/16,21:00:00,15,�k�k��,3.3,3,68.2,0,0,15,�k�k��,7.6,18,,
2020/11/16,22:00:00,15,�k�k��,3,3.2,64.5,0,0,15,�k�k��,7.1,46,,
2020/11/16,23:00:00,15,�k�k��,2.3,2,65.4,0,0,13,���k��,5.5,5,,
2020/11/16,0:00:00,13,���k��,3,3.9,47.7,0,0,13,���k��,7.4,49,,
2020/11/17,1:00:00,14,�k��,1,-0.4,68.6,0,0,13,���k��,4.8,3,,
2020/11/17,2:00:00,-3.2,#N/A,84.6,0,0,,,,,,,,
2020/11/17,3:00:00,11,���쐼,0.5,-5.3,89.9,0,0,10,�쐼,2.7,49,,